Hillsboro, OR

12:14 AM PST on January 17, 2017 (GMT -0800)
Portland-Hillsboro

Weather History for KHIO - November, 2013

Change the Weather History Date:

Tuesday, November 26, 2013

  Actual Average Record
Temperature  
Mean Temperature 36 °F 42 °F  
Max Temperature 45 °F 49 °F 61 °F (1947)
Min Temperature 26 °F 35 °F 19 °F (1952)
Degree Days  
Heating Degree Days 29 23  
Month to date heating degree days 531 524  
Since 1 July heating degree days 1135 1205  
Cooling Degree Days 0 0  
Month to date cooling degree days 0 0  
Year to date cooling degree days 310 198  
Moisture  
Dew Point 30 °F    
Average Humidity 75    
Maximum Humidity 92    
Minimum Humidity 58    
Precipitation  
Precipitation T in 0.22 in 2.70 in (1945)
Month to date precipitation 2.65 5.49  
Year to date precipitation 23.41 32.18  
Snow  
Snow 0.00 in - - ()
Month to date snowfall 0.0  
Since 1 July snowfall 0.0  
Since 1 September snowfall 0.0  
Snow Depth -    
Sea Level Pressure  
Sea Level Pressure 30.20 in    
Wind  
Wind Speed 1 mph (NW)    
Max Wind Speed 6 mph    
Max Gust Speed 8 mph    
Visibility 9 miles    
Events Rain    
T = Trace of Precipitation, MM = Missing Value Source: NWS Daily Summary

Daily Weather History Graph

Daily Weather History Graph

Search for Another Location

Airport or City:

Trip Planner

Search our weather history database for the weather conditions in past years. The results will help you decide how hot, cold, wet, or windy it might be!

Date:

Astronomy

Nov. 26, 2013 Rise Set
Actual Time 7:26 AM PST 4:32 PM PST
Civil Twilight 6:52 AM PST 5:05 PM PST
Nautical Twilight 6:16 AM PST 5:42 PM PST
Astronomical Twilight 5:40 AM PST 6:17 PM PST
Moon 12:15 AM PST (11/26) 12:59 PM PST (11/26)
Length of Visible Light 10h 12m
Length of Day
9h 06m
Last Quarter, 40% of the Moon is Illuminated
Nov 26
Last Quarter
Dec 2
New
Dec 9
First Quarter
Dec 17
Full
Dec 25
Last Quarter

Hourly Weather History & Observations

Time (PST) Temp. Windchill Dew Point Humidity Pressure Visibility Wind Dir Wind Speed Gust Speed Precip Events Conditions
12:53 AM 28.0 °F - 26.1 °F 92% 30.29 in 10.0 mi Calm Calm - N/A   Clear
1:53 AM 27.0 °F - 25.0 °F 92% 30.28 in 7.0 mi Calm Calm - N/A   Clear
2:53 AM 28.0 °F - 25.0 °F 88% 30.28 in 9.0 mi Calm Calm - N/A   Clear
3:53 AM 28.0 °F - 26.1 °F 92% 30.27 in 8.0 mi Calm Calm - N/A   Clear
4:53 AM 27.0 °F - 25.0 °F 92% 30.28 in 7.0 mi Calm Calm - N/A   Clear
5:53 AM 28.0 °F - 26.1 °F 92% 30.26 in 6.0 mi Calm Calm - N/A   Clear
6:53 AM 27.0 °F - 25.0 °F 92% 30.26 in 7.0 mi Calm Calm - N/A   Clear
7:53 AM 28.0 °F 24.2 °F 26.1 °F 92% 30.27 in 6.0 mi NW 3.5 mph - N/A   Haze
8:53 AM 30.0 °F - 28.0 °F 92% 30.27 in 7.0 mi Calm Calm - N/A   Clear
9:53 AM 35.1 °F - 30.9 °F 85% 30.27 in 10.0 mi Calm Calm - N/A   Clear
10:53 AM 37.9 °F 34.4 °F 32.0 °F 79% 30.25 in 10.0 mi WNW 4.6 mph - N/A   Clear
11:53 AM 39.9 °F 37.8 °F 32.0 °F 73% 30.22 in 10.0 mi NW 3.5 mph - N/A   Clear
12:53 PM 43.0 °F - 30.0 °F 60% 30.20 in 10.0 mi Calm Calm - N/A   Clear
1:53 PM 45.0 °F - 30.0 °F 56% 30.17 in 10.0 mi Calm Calm - N/A   Clear
2:53 PM 45.0 °F - 30.9 °F 58% 30.16 in 10.0 mi Calm Calm - N/A   Overcast
3:53 PM 45.0 °F 43.5 °F 30.9 °F 58% 30.15 in 10.0 mi NW 3.5 mph - N/A   Overcast
4:53 PM 44.1 °F - 32.0 °F 63% 30.15 in 10.0 mi Calm Calm - N/A   Overcast
5:53 PM 44.1 °F - 32.0 °F 63% 30.15 in 10.0 mi Calm Calm - N/A   Overcast
6:53 PM 43.0 °F - 35.1 °F 74% 30.14 in 10.0 mi Calm Calm - N/A   Overcast
7:53 PM 42.1 °F - 33.1 °F 70% 30.14 in 10.0 mi Calm Calm - N/A   Overcast
8:53 PM 42.1 °F - 34.0 °F 73% 30.12 in 10.0 mi Calm Calm - N/A   Overcast
9:53 PM 41.0 °F - 35.1 °F 79% 30.12 in 10.0 mi Calm Calm - N/A   Overcast
10:53 PM 37.9 °F - 34.0 °F 86% 30.10 in 10.0 mi Calm Calm - 0.00 in Rain Light Rain
11:53 PM 37.0 °F - 34.0 °F 89% 30.09 in 9.0 mi Calm Calm - 0.00 in   Overcast